TimeMST,TemperatureF,Dew PointF,Humidity,Sea Level PressureIn,VisibilityMPH,Wind Direction,Wind SpeedMPH,Gust SpeedMPH,PrecipitationIn,Events,Conditions,WindDirDegrees,DateUTC
12:31 AM,1.4,-2.2,85,29.80,0.5,NW,26.5,32.2,0.00,Snow,Snow,320,2013-01-12 07:31:00
12:45 AM,1.4,-2.2,85,29.81,0.2,NNW,24.2,33.4,0.00,Fog-Snow,Snow,330,2013-01-12 07:45:00
12:56 AM,1.9,-2.0,83,29.99,0.2,NNW,23.0,33.4,0.00,Fog-Snow,Snow,330,2013-01-12 07:56:00
1:04 AM,1.4,-2.2,85,29.82,0.5,NW,23.0,-,0.00,Fog-Snow,Snow,320,2013-01-12 08:04:00
1:23 AM,1.4,-2.2,85,29.84,0.2,NNW,25.3,34.5,0.00,Fog-Snow,Snow,330,2013-01-12 08:23:00
1:34 AM,1.4,-2.2,85,29.84,0.5,NNW,25.3,35.7,0.00,Snow,Snow,330,2013-01-12 08:34:00
1:56 AM,1.9,-2.9,80,30.03,1.0,NW,24.2,32.2,0.00,Snow,Light Snow,320,2013-01-12 08:56:00
2:04 AM,1.4,-2.2,85,29.87,1.0,NNW,23.0,31.1,0.00,Snow,Light Snow,330,2013-01-12 09:04:00
2:56 AM,1.0,-4.0,79,30.06,1.8,NW,25.3,33.4,0.00,Snow,Blowing Snow,320,2013-01-12 09:56:00
3:06 AM,1.4,-4.0,78,29.89,2.0,NW,25.3,32.2,N/A,Snow,Blowing Snow,320,2013-01-12 10:06:00
3:44 AM,1.4,-5.8,72,29.89,3.0,NW,26.5,32.2,0.00,,Overcast,320,2013-01-12 10:44:00
3:56 AM,1.0,-4.0,79,30.07,2.5,NW,25.3,32.2,0.00,Snow,Blowing Snow,320,2013-01-12 10:56:00
4:12 AM,1.4,-4.0,78,29.90,1.8,NW,21.9,33.4,0.00,,Overcast,320,2013-01-12 11:12:00
4:56 AM,1.0,-5.1,75,30.10,10.0,NW,20.7,27.6,0.00,,Overcast,320,2013-01-12 11:56:00
5:56 AM,1.0,-5.1,75,30.13,10.0,NW,18.4,-,N/A,,Overcast,320,2013-01-12 12:56:00
6:56 AM,-0.0,-7.1,72,30.17,10.0,NW,16.1,-,N/A,,Scattered Clouds,320,2013-01-12 13:56:00
7:56 AM,-2.9,-9.0,75,30.20,10.0,WNW,16.1,-,N/A,,Clear,300,2013-01-12 14:56:00
8:56 AM,-2.0,-8.0,76,30.22,10.0,WNW,18.4,-,N/A,,Scattered Clouds,300,2013-01-12 15:56:00
9:56 AM,-2.0,-9.0,72,30.25,10.0,WNW,16.1,-,N/A,,Scattered Clouds,300,2013-01-12 16:56:00
10:56 AM,-0.9,-7.1,75,30.26,10.0,NW,17.3,-,N/A,,Mostly Cloudy,310,2013-01-12 17:56:00
11:56 AM,1.0,-5.1,75,30.25,10.0,WNW,19.6,-,N/A,,Scattered Clouds,300,2013-01-12 18:56:00
12:56 PM,1.9,-6.0,69,30.25,10.0,WNW,18.4,-,N/A,,Mostly Cloudy,300,2013-01-12 19:56:00
1:56 PM,3.9,-5.1,66,30.27,10.0,WNW,13.8,-,N/A,,Clear,300,2013-01-12 20:56:00
2:56 PM,3.9,-5.1,66,30.27,10.0,WNW,10.4,-,N/A,,Clear,300,2013-01-12 21:56:00
3:56 PM,1.9,-6.0,69,30.27,10.0,WNW,9.2,-,N/A,,Scattered Clouds,290,2013-01-12 22:56:00
4:56 PM,1.0,-6.0,72,30.27,10.0,West,6.9,-,N/A,,Clear,280,2013-01-12 23:56:00
6:56 PM,1.0,-6.0,72,30.27,10.0,WNW,15.0,-,N/A,,Clear,290,2013-01-13 01:56:00
7:56 PM,-2.0,-8.0,76,30.28,10.0,West,9.2,-,N/A,,Clear,280,2013-01-13 02:56:00
8:56 PM,-2.9,-9.9,72,30.29,10.0,West,12.7,-,N/A,,Clear,280,2013-01-13 03:56:00
9:56 PM,-2.9,-9.9,72,30.28,10.0,West,12.7,-,N/A,,Clear,280,2013-01-13 04:56:00
10:56 PM,-2.0,-9.0,72,30.28,10.0,West,11.5,-,N/A,,Clear,280,2013-01-13 05:56:00
11:56 PM,-2.0,-9.0,72,30.27,10.0,SW,5.8,-,N/A,,Clear,220,2013-01-13 06:56:00